This demonstration page uses our WeatherBlox Daily Observations layout. Learn more.

Left ArrowRight Arrow

40.92945, -100.16068

Hourly Observations for July 17, 2019

Temp ( °F °C ) Dew Point ( °F °C ) Humidity (%) Winds ( mph kmh ) Pressure ( in mb ) Visibility ( mi km ) Precip ( " mm )
12:15 am 00:15 Clear 77 25.1 75 23.8 93 93 SE 8 13 29.77 1008 10 16 N/A
12:35 am 00:35 Clear 77 25 75 24 94 94 SE 12 19 29.77 1008 10 16 N/A
12:55 am 00:55 Clear 77 24.8 74 23.5 93 93 SE 10 17 29.74 1007 10 16 N/A
1:15 am 01:15 Clear 76 24.7 73 22.9 90 90 SSE 10 17 29.74 1007 10 16 N/A
1:35 am 01:35 Clear 76 24.5 73 22.5 89 89 SSE 10 17 29.74 1007 10 16 N/A
1:55 am 01:55 Clear 76 24.5 72 22.2 87 87 SSE 13 20 29.74 1007 10 16 N/A
2:15 am 02:15 Clear 76 24.2 72 22 88 88 SSE 13 20 29.71 1006 10 16 N/A
2:35 am 02:35 Clear 75 24 71 21.7 87 87 SSE 12 19 29.71 1006 10 16 N/A
2:55 am 02:55 Clear 75 23.7 71 21.6 88 88 SSE 12 19 29.71 1006 10 16 N/A
3:15 am 03:15 Clear 74 23.5 71 21.5 89 89 SSE 14 22 29.71 1006 10 16 N/A
3:35 am 03:35 Clear 74 23.4 70 21.2 88 88 SSE 10 17 29.68 1005 10 16 N/A
3:55 am 03:55 Clear 74 23.2 70 21 87 87 SSE 10 17 29.68 1005 10 16 N/A
4:15 am 04:15 Clear 73 23 69 20.8 87 87 SE 8 13 29.65 1004 10 16 N/A
4:30 am 04:30 Clear 73 23 69 20.7 87 87 SE 8 13 29.65 1004 10 16 N/A
4:55 am 04:55 Clear 73 22.8 69 20.5 87 87 SE 8 13 29.65 1004 10 16 N/A
5:15 am 05:15 Clear 72 22.2 69 20.5 90 90 SSE 8 13 29.65 1004 10 16 N/A
5:35 am 05:35 Clear 71 21.8 68 20.2 91 91 SSE 7 11 29.65 1004 10 16 N/A
5:55 am 05:55 Clear 71 21.5 68 20.1 92 92 SSE 7 11 29.68 1005 10 16 N/A
6:15 am 06:15 Clear 70 21.1 68 20 93 93 SSE 8 13 29.65 1004 10 16 N/A
6:35 am 06:35 Sunny 70 20.9 68 20 95 95 SE 6 9 29.71 1006 10 16 N/A
6:55 am 06:55 Sunny 71 21.4 68 20 92 92 SE 6 9 29.68 1005 10 16 N/A
7:15 am 07:15 Sunny 71 21.4 68 20.1 92 92 SSE 5 7 29.68 1005 10 16 N/A
7:35 am 07:35 Sunny 71 21.6 69 20.4 93 93 SSE 5 7 29.68 1005 10 16 N/A
7:55 am 07:55 Sunny 72 22.3 69 20.5 90 90 SSE 5 7 29.71 1006 10 16 N/A
8:15 am 08:15 Partly Cloudy 73 22.7 69 20.5 87 87 E 3 6 29.68 1005 10 16 N/A
8:35 am 08:35 Partly Cloudy 74 23.3 69 20.4 84 84 N N/A 29.68 1005 10 16 N/A
8:55 am 08:55 Partly Cloudy 75 24 69 20.5 81 81 N 3 6 29.68 1005 10 16 N/A
9:15 am 09:15 Sunny 75 24.1 71 21.4 85 85 NE 5 7 29.71 1006 10 16 N/A
9:35 am 09:35 Sunny 77 24.8 71 21.4 81 81 ENE 5 7 29.74 1007 10 16 N/A
9:55 am 09:55 Sunny 78 25.6 71 21.6 79 79 ESE 3 6 29.68 1005 10 16 N/A
10:15 am 10:15 Sunny 78 25.5 71 21.8 80 80 ENE 9 15 29.68 1005 10 16 N/A
10:35 am 10:35 Sunny 79 26 71 21.9 78 78 ENE 14 22 29.68 1005 10 16 N/A
10:55 am 10:55 Sunny 79 26.2 72 22.4 80 80 E 13 20 29.68 1005 10 16 N/A
11:15 am 11:15 Sunny 80 26.4 72 22 77 77 E 10 17 29.68 1005 10 16 N/A
11:35 am 11:35 Sunny 80 26.8 72 22.2 76 76 ENE 12 19 29.68 1005 10 16 N/A
11:55 am 11:55 Sunny 81 27.2 73 22.7 76 76 E 14 22 29.68 1005 10 16 N/A
12:15 pm 12:15 Sunny 81 27.4 73 22.7 76 76 ENE 14 22 29.68 1005 10 16 N/A
12:35 pm 12:35 Sunny 82 27.9 73 23 75 75 E 15 24 29.68 1005 10 16 N/A
12:55 pm 12:55 Sunny 83 28.1 73 22.9 73 73 E 13 20 29.68 1005 10 16 N/A
1:15 pm 13:15 Sunny 83 28.5 74 23.3 73 73 E 14 22 29.68 1005 10 16 N/A
1:35 pm 13:35 Sunny 84 28.7 74 23.1 72 72 E 14 22 29.65 1004 10 16 N/A
1:55 pm 13:55 Sunny 85 29.5 74 23.4 70 70 ESE 12 19 29.65 1004 10 16 N/A
2:15 pm 14:15 Partly Cloudy 86 29.8 74 23.1 67 67 SE 14 22 29.65 1004 10 16 N/A
2:35 pm 14:35 Partly Cloudy 85 29.5 73 22.5 66 66 SE 10 17 29.65 1004 10 16 N/A
2:55 pm 14:55 Partly Cloudy 86 30.2 74 23.2 66 66 SSE 9 15 29.62 1003 10 16 N/A
3:15 pm 15:15 Sunny 87 30.3 74 23.3 66 66 SE 7 11 29.62 1003 10 16 N/A
3:35 pm 15:35 Sunny 87 30.4 75 23.7 67 67 SE 8 13 29.62 1003 10 16 N/A
3:55 pm 15:55 Sunny 87 30.7 74 23.6 66 66 ESE 5 7 29.62 1003 10 16 N/A
4:15 pm 16:15 Sunny 88 30.9 74 23.5 65 65 ESE 9 15 29.62 1003 10 16 N/A
4:35 pm 16:35 Sunny 86 30.1 74 23.4 67 67 ESE 8 13 29.59 1002 10 16 N/A
4:55 pm 16:55 Sunny 89 31.4 75 24 65 65 ESE 9 15 29.59 1002 10 16 N/A
5:15 pm 17:15 Sunny 88 31 75 23.7 65 65 E 5 7 29.59 1002 10 16 N/A
5:35 pm 17:35 Sunny 86 30.1 78 25.6 77 77 N 6 9 29.59 1002 10 16 N/A
5:55 pm 17:55 Sunny 87 30.3 77 25.1 74 74 NE 7 11 29.59 1002 10 16 N/A
6:15 pm 18:15 Sunny 87 30.4 77 25 73 73 NNE 6 9 29.59 1002 10 16 N/A
6:35 pm 18:35 Sunny 87 30.8 77 25 71 71 NE 6 9 29.59 1002 10 16 N/A
6:55 pm 18:55 Sunny 85 29.2 77 24.8 77 77 ENE 6 9 29.59 1002 10 16 N/A
7:15 pm 19:15 Sunny 84 29 76 24.6 77 77 E 9 15 29.56 1001 10 16 N/A
7:35 pm 19:35 Sunny 84 28.8 75 24 75 75 E 10 17 29.56 1001 10 16 N/A
7:55 pm 19:55 Sunny 85 29.3 76 24.5 75 75 E 6 9 29.56 1001 10 16 N/A
8:15 pm 20:15 Sunny 83 28.1 77 25.1 84 84 NNE 6 9 29.59 1002 10 16 N/A
8:35 pm 20:35 Sunny 82 27.7 77 25.1 86 86 NNE 5 7 29.62 1003 10 16 N/A
8:55 pm 20:55 Sunny 81 27.1 77 25 88 88 ESE 3 6 29.62 1003 10 16 N/A
9:15 pm 21:15 Clear 80 26.5 76 24.7 90 90 E 7 11 29.62 1003 10 16 N/A
9:35 pm 21:35 Clear 79 26.1 76 24.6 91 91 ENE 7 11 29.59 1002 10 16 N/A
9:55 pm 21:55 Clear 78 25.8 76 24.5 93 93 ENE 6 9 29.62 1003 10 16 N/A
10:15 pm 22:15 Clear 78 25.5 76 24.3 93 93 NE 6 9 29.62 1003 10 16 N/A
10:35 pm 22:35 Clear 77 24.9 76 24.2 96 96 NE 5 7 29.62 1003 7 11 N/A
10:55 pm 22:55 Clear 77 24.8 76 24.2 96 96 ENE 5 7 29.62 1003 7 11 N/A
11:15 pm 23:15 Clear 77 25 76 24.5 97 97 ENE 6 9 29.62 1003 7 11 N/A
11:35 pm 23:35 Clear 77 25 76 24.3 96 96 E 5 7 29.62 1003 7 11 N/A
11:55 pm 23:55 Clear 76 24.7 76 24.2 97 97 ENE 3 6 29.62 1003 7 11 N/A

Powered by AerisWeather